Regional Weather Roundup
Issued by NWS

Home | Current Version | Previous Version | Text Only | Print | Product List | Glossary On
Versions: 1 2 3 4 5 6 7 8 9 10 11 12 13 14 15 16 17 18 19 20 21 22 23 24 25 26 27 28 29 30 31 32 33 34 35 36 37 38 39 40 41 42 43 44 45 46 47 48 49 50
000
ASUS42 KTBW 250017
RWRFL
FLORIDA REGIONAL WEATHER ROUNDUP
NATIONAL WEATHER SERVICE TAMPA BAY RUSKIN FL
700 PM EST FRI NOV 24 2017

NOTE: "FAIR" INDICATES FEW OR NO CLOUDS BELOW 12,000 FEET WITH NO
SIGNIFICANT WEATHER AND/OR OBSTRUCTIONS TO VISIBILITY.

FLZ001>010-012>015-112-114-115-250100-
PANHANDLE FLORIDA

CITY           SKY/WX    TMP DP  RH WIND       PRES   REMARKS
PENSACOLA      CLEAR     59  53  80 CALM      29.96R
PENSACOLA NAS  PTCLDY    56  53  90 W3        29.96R
MILTON NAS     PTCLDY    54  53  97 CALM      29.96
CRESTVIEW      CLEAR     53  49  86 CALM      29.98R
DUKE FIELD     FAIR      56  50  79 CALM      29.96R
VALPARAISO     PTCLDY    60  51  72 W5        29.96R
MARY ESTHER    PTCLDY    62  53  70 CALM      29.95S
PANAMA CITY    FAIR      56  52  86 CALM      29.96R
TYNDALL AFB    CLEAR     56  52  87 CALM      29.97R
APALACHICOLA   CLEAR     58  57  97 CALM      29.96R

STATION/POSITION SKY/WX   TEMP    WIND        PRES    WAVE   SWELL
                          AIR SEA DIR/SP/G            HT/PER HT/PER
                          (F)     (DEG/KT/KT) (MB)    (FT/S) (FT/S)
29.2N   88.2W              65 77  290/  4/  8 1015.1
28.8N   86.0W              68 76  110/  4/  6 1014.5R   2/ 5   2/ 5
PANAMA CITY BEAC           66 70  290/  7/ 10 1015.1R
TOWER C                    65     300/  2/  2 1015.5R

$$
FLZ011-016>038-118-127-128-134-139-239-250100-
NORTH FLORIDA

CITY           SKY/WX    TMP DP  RH WIND       PRES   REMARKS
MARIANNA       CLEAR     57  46  66 NE3       29.96R
TALLAHASSEE    CLEAR     54  50  86 CALM      29.96R
PERRY          CLEAR     55  51  87 CALM      29.98R
LIVE OAK       CLEAR     54  54 100 CALM      29.98R
CROSS CITY     CLEAR     57  56  95 CALM      30.01R
LAKE CITY      FAIR      55  54  94 CALM      29.96R
GAINESVILLE    CLOUDY    63  56  78 W5        29.97R
WILLISTON      MOCLDY    66  63  88 CALM      29.95R
PALATKA        FAIR      57  57 100 CALM      29.95R
MAYPORT NAS    CLEAR     58  51  78 N3        29.95R
JACKSONVILLE   CLEAR     57  53  86 CALM      29.95R
JAX NAS        CLEAR     62  51  67 NE5       29.96R
JAX CECIL      CLEAR     55  55 100 CALM      29.95R
ST AUGUSTINE   CLEAR     57  51  80 NW5       29.96R
PALM COAST     CLEAR     57  54  88 N5        29.95R

STATION/POSITION SKY/WX   TEMP    WIND        PRES    WAVE   SWELL
                          AIR SEA DIR/SP/G            HT/PER HT/PER
                          (F)     (DEG/KT/KT) (MB)    (FT/S) (FT/S)
SHELL POINT      NOT AVBL
KEATON BEACH               61      10/  3/  4 1014.6R
CEDAR KEY                  63     310/  5/  7 1014.8R
FERNANDINA                 58 65  160/  2/  3 1015.0R
30.7N   81.3W                 65                N/A     5/10   2/11
MAYPORT                    60 66   10/  3/  4 1014.5R
31.4N   80.9W              63 66  340/ 14/ 14 1013.5    5/10   3/10
ST AUGUSTINE               62 66  360/ 17/ 18 1014.2R

$$
FLZ040-043>046-052-053-057-058-063-144-250100-
INTERIOR CENTRAL FLORIDA

CITY           SKY/WX    TMP DP  RH WIND       PRES   REMARKS
OCALA          MOCLDY    63  59  87 CALM      29.95R
THE VILLAGES     N/A     59  59 100 CALM      29.85S
LEESBURG       PTCLDY    62  61  96 CALM      29.96R
SANFORD        MOCLDY    61  57  87 CALM      29.95R
ORLANDO EXEC   MOCLDY    62  58  86 CALM      29.95R
ORLANDO INTL   MOCLDY    62  59  90 CALM      29.96R
KISSIMMEE      CLOUDY    64  59  83 CALM      29.97R
WINTER HAVEN   CLOUDY    63  60  90 NE3       29.97R
LAKELAND       MOCLDY    64  63  94 N5        29.96R
BARTOW         CLOUDY    63  61  94 N6        29.96R
SEBRING        MOCLDY    67  62  84 CALM      29.96R
OKEECHOBEE     CLEAR     63  61  94 NW3       29.94R

$$
FLZ041-047-054-059-064-141-147-250100-
EAST CENTRAL FLORIDA

CITY           SKY/WX    TMP DP  RH WIND       PRES   REMARKS
ORMOND BEACH   CLEAR     59  55  88 CALM      29.95R
DAYTONA BEACH  PTCLDY    61  57  87 NW5       29.95R
DELAND         CLEAR     59  57  94 CALM      29.95R
NEW SMYRNA BEA CLOUDY    63  57  82 NW7       29.96R
JFK SPACE CTR  CLOUDY    64  64 100 NW8       29.94R
TITUSVILLE     CLOUDY    66  64  94 W9        29.95R
CAPE CANAVERAL CLOUDY    65  60  85 NW8       29.93R
PATRICK AFB    CLOUDY    65  63  94 NW8       29.94R
MELBOURNE      CLOUDY    66  62  87 NW7       29.95R
VERO BEACH     CLOUDY    66  63  90 NW6       29.94R
FT PIERCE      MOCLDY    67  64  90 N6        29.93R
STUART         PTCLDY    70  66  88 NW6       29.94R

STATION/POSITION SKY/WX   TEMP    WIND        PRES    WAVE   SWELL
                          AIR SEA DIR/SP/G            HT/PER HT/PER
                          (F)     (DEG/KT/KT) (MB)    (FT/S) (FT/S)
28.5N   80.2W              69 74  310/ 17/ 21 1013.1R   7/10   5/10
TRIDENT PIER                      250/  3/  7   N/A
27.5N   80.2W                 79                N/A     3/10   2/11

$$
FLZ050-056-061-142-242-148-248-149-249-151-251-155-255-
160-260-250100-
WEST CENTRAL FLORIDA

CITY           SKY/WX    TMP DP  RH WIND       PRES   REMARKS
CRYSTAL RIVER  FAIR      61  59  94 CALM      29.96R
INVERNESS      CLOUDY    63  63 100 CALM      29.96R
BROOKSVILLE    CLOUDY    63  60  90 CALM      29.96R
CLEARWATER AIR FAIR      61  59  94 CALM      29.96R
ST PETE CLEARW CLEAR     64  60  87 N8        29.96R
TAMPA INTL     PTCLDY    63  60  90 NW7       29.96R
TAMPA EXEC     CLOUDY    63  61  94 CALM      29.96R
PLANT CITY     MOCLDY    66  61  82 NE3       29.98R
PETER O KNIGHT   N/A    N/A N/A N/A NW5       29.96R
ST PETERSBURG  PTCLDY    66  61  84 N5        29.94R
SARASOTA       MOCLDY    65  62  90 CALM      29.94R
VENICE         FAIR      68  64  88 NW7       29.96R

STATION/POSITION SKY/WX   TEMP    WIND        PRES    WAVE   SWELL
                          AIR SEA DIR/SP/G            HT/PER HT/PER
                          (F)     (DEG/KT/KT) (MB)    (FT/S) (FT/S)
27.3N   84.2W                 76                N/A     3/ 6
CLEARWATER BEACH           66 70  350/  8/ 10 1014.5R
MIDDLE TAMPA BAY           66     340/  9/ 10 1014.2R
VENICE                     68 71  330/ 10/ 11 1014.4R

$$
FLZ066-069-070-075>078-162-262-165-265-250100-
SOUTHWEST FLORIDA AND KEYS

CITY           SKY/WX    TMP DP  RH WIND       PRES   REMARKS
PUNTA GORDA    CLOUDY    68  63  84 N5        29.97R
FT MYERS       CLOUDY    70  62  76 NW5       29.94R
SOUTHWEST INTL CLOUDY    68  64  87 NW3       29.95R
NAPLES         PTCLDY    69  61  75 NW6       29.95R
MARCO ISLAND   CLEAR     68  64  87 NW7       29.96R
IMMOKALEE      MOCLDY    68  63  83 W5        29.95R
MARATHON       CLEAR     74  66  76 NW9       29.92R
KEY WEST NAS   MOCLDY    74  69  85 N9        29.94R
KEY WEST INTL  PTCLDY    74  67  78 NW10      29.94R HAZE

STATION/POSITION SKY/WX   TEMP    WIND        PRES    WAVE   SWELL
                          AIR SEA DIR/SP/G            HT/PER HT/PER
                          (F)     (DEG/KT/KT) (MB)    (FT/S) (FT/S)
NAPLES                        76  310/ 11/ 12 1013.9R
DRY TORTUGAS               75      10/ 10/ 11 1013.9R
SAND KEY                   74                 1014.4R
MOLASSES REEF              76 80  330/ 11/ 12 1013.3R

$$
FLZ067-068-071>074-168-172>174-250100-
SOUTHEAST FLORIDA

CITY           SKY/WX    TMP DP  RH WIND       PRES   REMARKS
W PALM BEACH   PTCLDY    72  62  71 NW6       29.92R
BOCA RATON     PTCLDY    73  64  73 NW8       29.91R
FT LAUDER-EXEC MOCLDY    73  67  81 NW6       29.90R
FT LAUDERDALE  PTCLDY    75  67  76 W5        29.89S
POMPANO BEACH  PTCLDY    74  67  78 NW10      29.90R
PEMBROKE PINES CLEAR     75  65  70 W8        29.91S
OPA LOCKA      CLEAR     74  66  76 W9        29.91R
MIAMI          PTCLDY    77  64  64 W9        29.90S
WEST KENDALL   CLEAR     68  63  84 W8        29.91R
HOMESTEAD      CLEAR     73  68  84 SW5       29.90R

STATION/POSITION SKY/WX   TEMP    WIND        PRES    WAVE   SWELL
                          AIR SEA DIR/SP/G            HT/PER HT/PER
                          (F)     (DEG/KT/KT) (MB)    (FT/S) (FT/S)
PORT EVERGLADES            77     300/  7/  9 1012.3R
VIRGINIA KEY               77 79  250/  6/ 10 1012.1R
LAKE WORTH                 72 80  320/  8/ 10 1013.9R
FOWEY ROCKS                76 79  270/ 13/ 14 1013.2R
SETTLEMENT POINT           77     300/ 11/ 12 1012.7R

$$




USA.gov is the U.S. government's official web portal to all federal, state and local government web resources and services.